Regional Weather Roundup
Issued by NWS

Home | Current Version | Previous Version | Text Only | Print | Product List | Glossary On
Versions: 1 2 3 4 5 6 7 8 9 10 11 12 13 14 15 16 17 18 19 20 21 22 23 24 25 26 27 28 29 30 31 32 33 34 35 36 37 38 39 40 41 42 43 44 45 46 47 48 49 50
000
ASUS43 KLSX 290107
RWRMO

WEATHER SUMMARY FOR MISSOURI
NATIONAL WEATHER SERVICE SPRINGFIELD MO
800 PM CDT THU MAY 28 2015

NOTE: "FAIR" INDICATES FEW OR NO CLOUDS BELOW 12,000 FEET WITH NO
       SIGNIFICANT WEATHER AND/OR OBSTRUCTIONS TO VISIBILITY.
       CURRENT SKY AND/OR WEATHER CONDITIONS ARE NOT AVAILABLE FOR
       CHILLICOTHE AND FARMINGTON.

MOZ001>031-035>038-043-044-053-054-290200-
...NORTHERN AND WESTERN MISSOURI...

CITY           SKY/WX    TMP DP  RH WIND       PRES   REMARKS
KANSAS CTY INT MOCLDY    70  64  81 SE6       29.97S
KANSAS C DTWN  MOCLDY    72  62  71 SE5       29.96S
LEE`S SUMMIT   MOCLDY    69  64  84 E6        29.97F
ST JOSEPH      MOCLDY    71  65  81 SE8       29.97R
CHILLICOTHE      N/A     69  65  86 E6        30.00R
KIRKSVILLE     CLOUDY    66  65  96 E9        30.03F

$$
MOZ066>068-077>081-088>096-101>105-290200-
...SOUTHWEST MISSOURI...

CITY           SKY/WX    TMP DP  RH WIND       PRES   REMARKS
SPRINGFIELD    PTCLDY    71  67  87 NE8       29.98F
JOPLIN         MOCLDY    73  65  75 W3        29.97S

$$
MOZ032>034-039>042-045>050-055>058-069>072-290200-
...CENTRAL MISSOURI...

CITY           SKY/WX    TMP DP  RH WIND       PRES   REMARKS
COLUMBIA       HVY RAIN  69  66  90 E5        30.03F FOG
JEFFERSON CITY LGT RAIN  70  66  87 CALM      30.02S
ROLLA          CLOUDY    73  66  78 SE3       30.01F
SEDALIA        CLOUDY    70  64  81 E7        30.01F
WHITEMAN AFB   MOCLDY    68  66  94 E3        29.98F
WARRENSBURG    CLOUDY    68  64  88 E5        29.97F
OSAGE BEACH    CLOUDY    64  63  94 E6        30.01F

$$
MOZ051-052-059>065-290200-
...EAST CENTRAL MISSOURI...

CITY           SKY/WX    TMP DP  RH WIND       PRES   REMARKS
ST LOUIS INTL  MOCLDY    81  65  58 S12       30.04S
SPIRIT OF STL  MOCLDY   N/A N/A N/A CALM      30.02F
ST CHARLES     MOCLDY    74  69  85 N3        30.03S

$$
MOZ072>076-082>087-097>100-106>115-290200-
...SOUTH CENTRAL AND SOUTHEAST MISSOURI...

CITY           SKY/WX    TMP DP  RH WIND       PRES   REMARKS
CAPE GIRARDEAU CLEAR     73  66  78 S6        30.05F
FARMINGTON     MOCLDY    73  64  73 SE7       30.10S
POPLAR BLUFF   MOCLDY    75  66  73 SE5       30.04F
WEST PLAINS    CLOUDY    73  65  75 SE12      30.02F

$$


USA.gov is the U.S. government's official web portal to all federal, state and local government web resources and services.